Date,TemperatureHighF,TemperatureAvgF,TemperatureLowF,DewpointHighF,DewpointAvgF,DewpointLowF,HumidityHigh,HumidityAvg,HumidityLow,PressureMaxIn,PressureMinIn,WindSpeedMaxMPH,WindSpeedAvgMPH,GustSpeedMaxMPH,PrecipitationSumIn
2013-1-1,63,52,40,38,26,15,77,43,20,30.01,29.88,15,6,18,0.00
2013-1-2,74,59,49,50,19,14,56,22,14,29.94,29.82,21,8,24,0.00
2013-1-3,71,63,50,21,19,16,27,18,14,29.98,29.88,23,10,25,0.00
2013-1-4,74,62,43,32,19,18,63,20,18,29.98,29.68,9,9,11,0.00
2013-1-5,74,52,42,50,37,23,75,58,20,29.95,29.67,7,2,8,0.00
2013-1-6,60,54,41,51,45,39,96,73,63,29.88,29.82,10,3,10,0.02
2013-1-7,60,60,60,47,47,47,63,63,63,29.84,29.84,4,4,9,0.02
2013-1-8,83,62,46,51,44,30,87,57,17,29.98,29.84,8,3,9,0.02
2013-1-9,73,54,43,55,46,38,88,75,36,29.98,29.88,7,1,7,0.00
2013-1-10,67,53,39,48,35,21,87,56,20,29.97,29.79,15,2,17,0.00
2013-1-11,64,46,32,31,24,16,74,48,21,30.05,29.91,10,2,12,0.00
2013-1-12,67,46,34,30,25,19,68,49,17,30.02,29.93,11,3,11,0.00
2013-1-13,67,47,36,33,23,7,67,42,17,30.03,29.91,16,4,16,0.00
2013-1-14,58,48,39,19,11,6,25,23,20,30.21,30.01,22,8,22,0.00
2013-1-15,71,52,36,37,19,5,67,30,15,30.30,30.18,16,3,16,0.00
2013-1-16,76,65,53,27,22,18,27,20,13,30.20,29.99,23,8,25,0.00
2013-1-17,78,69,63,26,21,18,18,16,13,30.04,29.93,27,10,27,0.08
2013-1-18,78,71,58,26,23,18,22,16,13,30.01,29.93,21,10,21,0.00
2013-1-19,78,78,78,25,25,25,14,14,14,29.93,29.93,14,14,16,0.00
2013-1-20,78,78,78,25,25,25,14,14,14,29.93,29.93,14,14,16,0.00
2013-1-21,78,77,58,50,24,18,43,14,13,29.99,29.91,14,14,16,0.00
2013-1-22,86,67,53,32,22,15,23,18,12,29.99,29.92,13,3,13,0.00
2013-1-23,80,62,54,48,36,21,80,43,18,30.02,29.90,11,3,11,0.05
2013-1-24,64,58,53,58,54,48,97,86,72,30.08,29.97,10,2,10,0.63
2013-1-25,63,60,57,56,54,49,95,80,61,30.05,29.86,11,3,11,0.28
2013-1-26,77,61,54,66,55,49,97,83,50,29.94,29.82,11,2,11,0.17
2013-1-27,74,56,42,55,44,33,86,66,37,29.98,29.86,14,3,14,0.00
2013-1-28,66,50,38,38,33,24,77,55,25,30.13,29.97,11,2,11,0.00
2013-1-29,65,50,38,44,37,32,84,64,32,30.15,30.07,8,2,8,0.00
2013-1-30,74,54,41,49,42,36,86,67,34,30.26,30.14,8,2,8,0.00
2013-1-31,83,60,45,52,42,33,81,56,18,30.18,30.05,13,2,13,0.00
2013-2-1,86,60,48,49,41,37,68,53,21,30.08,30.05,12,2,12,0.00
2013-2-2,78,64,50,54,48,39,86,57,25,30.12,30.06,7,2,7,0.00
2013-2-3,83,61,47,54,48,44,94,66,32,30.08,29.95,10,2,12,0.00
2013-2-4,72,56,43,58,48,42,99,79,46,30.03,29.92,12,2,12,0.00
2013-2-5,62,53,46,54,49,44,99,86,65,30.03,29.93,7,2,7,0.00
2013-2-6,71,56,44,55,48,42,94,76,43,30.04,29.93,10,2,11,0.00
2013-2-7,68,52,40,52,45,39,96,77,51,30.07,29.91,12,2,12,0.00
2013-2-8,59,48,39,47,39,36,88,73,50,29.91,29.81,15,3,20,0.00
2013-2-9,67,49,36,41,36,28,89,66,26,30.03,29.87,14,2,14,0.01
2013-2-10,66,48,38,46,40,34,90,73,43,30.03,29.95,8,2,11,0.00
2013-2-11,71,51,39,40,34,18,91,60,14,30.18,30.00,21,4,21,0.00
2013-2-12,43,39,38,35,30,29,79,68,66,30.21,30.17,9,4,9,0.00
2013-2-13,39,39,39,29,29,29,66,66,66,30.21,30.21,4,4,4,0.00
2013-2-14,39,39,39,29,29,29,66,66,66,30.21,30.21,4,4,4,0.00
2013-2-15,84,62,39,31,26,19,66,34,12,30.21,30.05,21,5,21,0.00
2013-2-16,70,70,70,23,23,23,17,17,17,30.09,30.09,0,0,2,0.00
2013-2-17,71,67,55,51,36,23,81,38,17,30.09,29.88,11,3,11,0.00
2013-2-18,70,56,46,49,47,45,97,74,43,30.00,29.90,8,2,8,0.00
2013-2-19,62,50,44,47,44,39,94,81,47,29.93,29.68,9,2,9,0.11
2013-2-20,68,57,35,44,33,28,84,46,24,29.82,29.67,12,3,12,0.01
2013-2-21,68,68,44,36,30,30,74,25,24,29.93,29.80,4,4,5,0.01
2013-2-22,72,54,41,42,35,24,76,54,18,30.01,29.92,12,3,12,0.00
2013-2-23,69,54,39,51,39,25,84,58,32,29.98,29.73,14,3,14,0.00
2013-2-24,70,58,45,35,23,13,62,29,14,30.02,29.83,26,8,26,0.00
2013-2-25,74,55,38,43,34,17,76,50,14,30.04,29.90,11,3,11,0.00
2013-2-26,80,56,36,46,35,24,75,50,13,29.95,29.81,15,3,15,0.00
2013-2-27,82,62,51,27,21,14,36,21,12,30.11,29.94,21,4,21,0.00
2013-2-28,87,66,47,42,29,15,51,27,12,30.14,30.06,13,3,13,0.00
2013-3-1,91,70,55,35,27,20,44,22,11,30.13,29.99,17,4,17,0.00
2013-3-2,89,68,54,50,36,26,86,34,15,30.03,29.91,9,2,10,0.00
2013-3-3,75,60,50,54,50,43,90,71,37,29.93,29.81,13,2,14,0.00
2013-3-4,72,56,44,54,48,43,95,76,49,29.92,29.83,14,2,14,0.00
2013-3-5,73,55,45,52,48,43,94,78,46,29.95,29.85,14,3,14,0.00
2013-3-6,65,55,46,50,47,43,91,76,52,29.97,29.83,10,2,10,0.00
2013-3-7,67,54,50,49,48,44,94,83,48,29.84,29.78,10,1,10,0.01
2013-3-8,66,54,45,50,45,41,95,75,46,29.84,29.62,10,3,10,0.27
2013-3-9,72,56,40,49,44,38,93,67,34,30.03,29.84,11,2,11,0.00
2013-3-10,84,60,42,45,36,20,79,48,12,30.09,29.99,12,3,12,0.00
2013-3-11,78,60,44,48,40,31,75,52,23,30.00,29.87,11,3,11,0.00
2013-3-12,79,61,45,54,46,38,84,60,35,29.91,29.85,11,2,11,0.00
2013-3-13,82,65,45,56,48,39,85,56,32,29.93,29.86,10,2,10,0.00
2013-3-14,78,60,45,55,50,43,97,72,39,29.93,29.84,5,2,5,0.00
2013-3-15,74,61,52,56,53,49,97,77,52,29.85,29.77,10,3,10,0.00
2013-3-16,72,57,50,56,51,47,97,83,51,29.81,29.70,8,2,9,0.00
2013-3-17,74,56,46,57,50,45,98,81,48,29.84,29.75,11,2,11,0.00
2013-3-18,70,56,44,55,49,44,97,80,54,29.91,29.80,9,2,9,0.00
2013-3-19,72,60,47,56,51,45,94,75,53,29.94,29.85,11,3,11,0.00
2013-3-20,75,61,51,58,51,48,93,73,47,29.92,29.77,12,2,12,0.00
2013-3-21,77,61,48,57,50,45,91,71,44,29.79,29.63,12,2,12,0.00
2013-3-22,76,71,45,53,48,37,93,46,34,29.71,29.61,11,3,12,0.00
2013-3-23,74,53,42,50,36,30,87,55,42,29.83,29.67,4,3,11,0.00
2013-3-24,76,60,44,54,48,40,88,68,36,29.85,29.73,13,2,13,0.00
2013-3-25,76,59,44,56,48,39,91,69,41,29.80,29.73,11,2,12,0.00
2013-3-26,73,59,46,57,50,45,98,75,49,29.80,29.74,13,2,13,0.00
2013-3-27,74,60,48,54,50,46,95,74,46,29.87,29.75,11,3,11,0.00
2013-3-28,75,59,50,56,52,48,96,78,51,29.91,29.84,11,2,11,0.00
2013-3-29,76,60,51,58,53,49,96,78,51,29.93,29.87,11,3,13,0.00
2013-3-30,74,61,55,56,53,51,92,76,52,29.96,29.88,8,3,8,0.00
2013-3-31,72,61,55,60,54,51,89,79,53,29.94,29.88,7,2,7,0.06
2013-4-1,70,60,53,59,52,49,93,75,55,29.99,29.90,14,3,14,0.00
2013-4-2,75,61,49,58,51,47,94,73,48,29.92,29.83,11,2,12,0.00
2013-4-3,80,62,50,57,53,48,96,75,44,29.91,29.83,10,3,11,0.00
2013-4-4,75,62,56,57,54,52,90,78,49,29.95,29.85,13,3,13,0.00
2013-4-5,75,62,54,58,54,50,87,75,54,29.93,29.82,12,2,12,0.00
2013-4-6,77,62,49,57,52,48,94,73,48,29.92,29.77,12,3,12,0.00
2013-4-7,79,63,50,58,52,47,92,69,39,29.79,29.61,13,2,13,0.00
2013-4-8,78,61,52,50,42,26,88,56,18,29.67,29.47,20,4,21,0.00
2013-4-9,81,62,45,48,40,26,78,51,15,29.82,29.66,15,3,15,0.00
2013-4-10,90,68,49,48,36,24,70,37,11,29.93,29.80,13,2,14,0.00
2013-4-11,77,61,46,52,47,39,80,62,36,29.81,29.61,14,2,14,0.00
2013-4-12,71,57,52,54,50,49,88,79,55,29.70,29.63,12,1,12,0.00
2013-4-13,68,58,52,55,52,49,94,82,63,29.75,29.67,9,2,9,0.00
2013-4-14,67,58,55,55,54,52,94,85,63,29.71,29.67,7,2,7,0.00
2013-4-15,70,56,51,53,47,43,86,71,52,29.73,29.66,15,3,15,0.00
2013-4-16,71,58,44,48,43,35,87,60,30,29.85,29.69,15,3,15,0.00
2013-4-17,76,60,42,45,38,19,84,51,13,29.96,29.84,12,3,12,0.00
2013-4-18,86,66,52,37,26,18,53,25,12,30.04,29.95,22,6,22,0.00
2013-4-19,89,68,50,50,38,24,75,37,13,29.99,29.80,13,3,13,0.00
2013-4-20,89,68,49,56,46,38,79,50,23,29.82,29.72,11,2,11,0.00
2013-4-21,86,67,50,58,51,44,84,61,27,29.83,29.75,10,2,10,0.00
2013-4-22,75,64,57,56,54,53,88,72,52,29.83,29.73,14,3,14,0.00
2013-4-23,75,65,57,54,52,51,85,66,48,29.79,29.71,9,3,9,0.00
2013-4-24,64,59,56,56,54,51,91,83,73,29.81,29.73,4,1,4,0.00
2013-4-25,76,64,53,54,50,46,88,63,36,29.95,29.79,10,3,10,0.00
2013-4-26,78,64,51,54,50,46,86,65,40,29.97,29.93,10,3,10,0.00
2013-4-27,79,68,50,59,54,49,95,63,44,29.96,29.82,12,3,14,0.00
2013-4-28,76,62,53,59,54,52,96,78,54,29.84,29.69,11,3,11,0.00
2013-4-29,76,63,55,59,56,53,93,77,54,29.73,29.62,11,3,11,0.00
2013-4-30,76,64,59,57,55,53,87,73,50,29.72,29.65,11,2,11,0.00
2013-5-1,79,68,57,58,55,52,87,64,44,29.93,29.71,11,3,11,0.00
2013-5-2,92,79,51,52,38,18,94,35,11,29.96,29.90,26,11,27,0.20
2013-5-3,99,86,63,48,38,28,40,20,11,29.91,29.59,16,8,21,0.20
2013-5-4,84,67,52,58,52,36,81,61,36,29.66,29.55,14,3,14,0.00
2013-5-5,72,63,59,54,51,49,80,65,47,29.76,29.65,11,3,11,0.00
2013-5-6,76,64,56,63,53,46,96,72,38,29.84,29.70,11,2,11,0.14
2013-5-7,78,66,57,56,52,46,86,64,38,29.89,29.81,14,3,14,0.00
2013-5-8,77,65,56,58,52,47,89,66,42,29.92,29.88,14,3,14,0.00
2013-5-9,78,64,52,56,52,48,88,68,41,29.92,29.84,12,3,12,0.00
2013-5-10,80,67,54,60,56,51,93,69,46,29.93,29.83,14,3,14,0.00
2013-5-11,84,68,54,62,57,52,92,70,46,29.90,29.83,11,2,11,0.00
2013-5-12,90,74,56,64,58,53,92,63,35,29.88,29.74,11,2,11,0.00
2013-5-13,89,72,58,63,58,54,86,64,38,29.81,29.73,12,2,12,0.00
2013-5-14,76,64,55,59,54,51,92,72,49,29.82,29.74,14,3,14,0.00
2013-5-15,76,63,51,58,53,49,93,72,52,29.95,29.81,15,2,15,0.00
2013-5-16,77,62,52,59,54,49,92,74,51,29.95,29.87,13,2,13,0.00
2013-5-17,76,65,54,58,54,49,92,70,48,29.96,29.88,15,3,15,0.00
2013-5-18,79,65,51,57,52,48,88,65,38,30.00,29.94,13,3,13,0.00
2013-5-19,86,69,51,59,54,48,92,61,38,29.95,29.83,14,3,14,0.00
2013-5-20,83,70,53,60,56,50,91,64,42,29.92,29.85,15,3,15,0.00
2013-5-21,82,68,55,62,57,52,90,70,49,29.91,29.80,13,3,13,0.00
2013-5-22,77,66,55,58,52,48,81,64,41,29.82,29.75,14,4,14,0.05
2013-5-23,76,64,52,55,50,46,83,63,41,29.91,29.80,19,3,19,0.00
2013-5-24,77,64,50,58,51,45,85,64,44,29.95,29.87,14,3,14,0.00
2013-5-25,77,64,50,57,52,46,85,66,45,29.99,29.92,15,3,15,0.00
2013-5-26,77,65,50,58,53,48,92,68,47,30.01,29.95,14,3,14,0.00
2013-5-27,78,66,53,58,54,50,91,67,46,29.97,29.82,14,3,14,0.00
2013-5-28,82,69,54,60,56,50,89,65,42,29.85,29.71,16,3,16,0.00
2013-5-29,83,68,54,60,55,52,91,65,41,29.79,29.69,12,3,12,0.00
2013-5-30,82,69,53,61,56,50,89,66,44,29.84,29.74,11,3,11,0.00
2013-5-31,81,69,56,61,58,53,91,69,49,29.88,29.79,11,3,11,0.00
2013-6-1,87,70,58,64,58,54,90,70,44,29.83,29.71,11,3,11,0.00
2013-6-2,80,66,60,63,59,56,90,77,54,29.80,29.74,12,3,12,0.00
2013-6-3,82,70,61,60,58,56,89,68,44,29.87,29.77,12,4,12,0.00
2013-6-4,78,67,58,60,57,53,86,71,51,29.95,29.85,14,3,14,0.00
2013-6-5,77,64,52,59,55,50,92,74,52,29.98,29.91,13,3,13,0.00
2013-6-6,77,65,54,60,56,51,90,75,54,29.92,29.86,12,3,12,0.00
2013-6-7,77,66,60,60,57,55,85,74,54,29.89,29.76,11,3,11,0.00
2013-6-8,63,62,62,58,58,57,84,84,82,29.81,29.76,4,1,4,0.00
2013-6-9,62,62,62,58,58,58,84,84,84,29.76,29.76,1,1,2,0.00
2013-6-10,62,62,62,58,58,58,84,84,84,29.76,29.76,1,1,2,0.00
2013-6-11,85,70,0,62,58,54,91,68,44,29.96,29.76,12,3,12,0.00
2013-6-12,78,66,61,61,58,57,88,76,55,30.05,29.95,12,3,12,0.00
2013-6-13,78,68,60,61,58,55,83,71,53,30.03,29.91,12,3,12,0.00
2013-6-14,81,68,53,62,57,51,92,71,49,29.94,29.86,14,3,14,0.00
2013-6-15,63,62,61,57,57,57,86,84,81,29.91,29.90,6,2,6,0.00
2013-6-24,78,67,56,62,58,54,94,75,53,29.96,29.84,7,2,7,0.00
2013-6-25,83,71,63,62,60,58,86,69,50,30.02,29.92,10,3,10,0.00
2013-6-26,84,74,60,64,61,57,90,66,47,30.00,29.93,12,3,12,0.00
2013-6-27,88,76,63,67,63,58,87,65,45,30.04,29.97,8,3,8,0.00
2013-6-28,90,76,62,65,62,59,92,65,42,30.00,29.90,8,3,8,0.00
2013-6-29,92,78,62,67,62,58,88,60,41,29.90,29.75,8,2,8,0.00
2013-6-30,95,76,64,67,64,59,86,69,39,29.84,29.74,8,2,8,0.00
2013-7-1,89,75,65,68,65,62,94,72,47,29.90,29.81,11,2,11,0.00
2013-7-2,86,72,64,68,63,61,92,74,48,30.03,29.89,11,2,11,0.00
2013-7-3,83,70,64,66,62,60,92,78,54,29.95,29.83,11,3,11,0.00
2013-7-4,82,71,64,65,62,60,90,74,52,29.86,29.77,10,3,10,0.00
2013-7-5,83,72,65,65,62,61,87,73,51,29.87,29.78,12,3,12,0.00
2013-7-6,82,72,65,66,62,60,86,73,53,29.85,29.77,11,3,11,0.00
2013-7-7,83,71,62,64,61,58,89,73,49,29.88,29.80,9,2,13,0.00
2013-7-8,86,71,60,64,60,57,94,70,45,29.95,29.88,10,2,11,0.00
2013-7-9,86,72,59,64,60,56,94,69,43,30.00,29.93,14,3,14,0.00
2013-7-10,89,71,61,65,61,58,90,74,45,29.99,29.91,11,2,11,0.01
2013-7-11,83,72,65,67,64,61,88,77,55,29.99,29.91,7,2,7,0.00
2013-7-12,82,70,62,71,62,59,96,76,52,29.95,29.89,13,3,13,0.00
2013-7-13,83,70,61,66,60,57,92,73,48,29.98,29.89,11,3,11,0.00
2013-7-14,85,71,58,64,59,55,92,68,43,29.96,29.83,14,3,14,0.00
2013-7-15,84,70,58,63,57,54,90,66,42,29.89,29.84,12,3,12,0.00
2013-7-16,84,69,56,61,56,53,96,68,38,30.00,29.89,11,3,12,0.00
2013-7-17,86,71,54,60,56,51,91,64,37,30.04,29.98,12,3,12,0.00
2013-7-18,84,70,57,63,58,54,95,68,43,30.00,29.89,11,3,11,0.00
2013-7-19,82,69,56,61,57,53,92,68,43,29.93,29.84,11,2,11,0.00
2013-7-20,82,69,57,64,60,54,92,75,54,29.90,29.80,12,2,12,0.00
2013-7-21,83,66,64,64,61,59,86,82,53,29.91,29.83,6,1,6,0.00
2013-9-3,93,79,65,70,65,62,93,64,42,29.92,29.84,10,2,10,0.00
2013-9-4,91,77,64,66,62,61,89,64,40,29.94,29.87,7,2,7,0.00
2013-9-5,95,77,62,66,62,59,91,63,38,29.92,29.85,8,2,8,0.00
2013-9-6,95,78,61,66,61,57,89,62,35,29.90,29.81,8,2,8,0.00
2013-9-7,91,74,60,63,60,57,88,66,37,29.90,29.83,8,2,8,0.00
2013-9-8,84,71,61,64,60,58,92,71,45,29.87,29.78,11,2,11,0.00
2013-9-9,78,65,60,64,59,58,94,82,56,29.84,29.78,9,2,9,0.00
2013-9-10,82,69,61,62,59,57,90,74,48,29.95,29.83,11,2,11,0.00
2013-9-11,82,68,60,62,59,56,92,75,51,30.03,29.95,11,2,11,0.00
2013-9-12,88,70,57,64,59,55,96,70,42,29.95,29.85,10,2,10,0.00
2013-9-13,88,72,57,67,59,55,97,69,38,29.85,29.69,11,2,11,0.00
2013-9-14,64,62,60,60,58,57,89,86,84,29.72,29.70,1,0,1,0.00
2013-9-24,88,72,58,59,51,42,84,50,26,29.95,29.85,9,2,9,0.00
2013-9-25,78,66,54,61,55,51,91,69,44,29.86,29.71,8,2,8,0.00
2013-9-26,78,66,55,57,51,43,87,64,28,29.92,29.73,9,2,9,0.00
2013-9-27,89,68,50,49,37,28,83,41,13,30.01,29.91,14,4,14,0.00
2013-9-28,89,71,54,49,38,31,55,33,13,30.05,29.99,9,3,9,0.00
2013-9-29,89,69,52,56,45,35,78,46,21,30.07,29.99,8,3,8,0.00
2013-9-30,86,73,51,59,54,43,88,55,26,29.99,29.86,11,3,11,0.00
2013-10-1,82,67,52,62,57,51,96,73,47,29.95,29.89,11,2,11,0.00
2013-10-2,81,66,55,64,57,53,96,76,46,29.99,29.91,12,2,12,0.00
2013-10-3,78,65,57,62,58,54,95,79,49,29.95,29.84,11,2,11,0.00
2013-10-4,87,72,51,55,34,18,97,37,12,30.06,29.89,27,9,27,0.00
2013-10-5,91,80,72,33,26,18,17,14,11,30.16,30.05,29,10,29,0.00
2013-10-6,101,77,62,48,33,18,52,23,11,30.10,29.98,14,4,14,0.00
2013-10-7,86,67,54,58,45,30,89,49,24,30.00,29.92,11,2,11,0.00
2013-10-8,78,63,50,60,54,48,95,74,49,29.95,29.83,13,3,13,0.00
2013-10-9,68,60,50,56,51,45,88,74,48,29.84,29.71,17,3,17,0.00
2013-10-10,77,60,47,53,49,45,93,71,40,30.04,29.81,11,3,11,0.00
2013-10-11,77,62,50,56,52,48,94,73,43,30.06,29.97,11,2,11,0.00
2013-10-12,54,52,50,52,50,48,95,94,92,29.97,29.95,4,0,4,0.00
2013-10-25,79,63,55,58,56,53,95,79,48,30.14,30.03,5,2,5,0.00
2013-10-26,83,62,48,61,54,48,99,79,45,30.11,29.99,6,2,6,0.01
2013-10-27,74,60,47,59,53,45,95,79,56,29.99,29.83,8,2,8,0.00
2013-10-28,70,61,56,55,50,45,86,70,44,29.94,29.81,11,4,11,0.00
2013-10-29,71,59,48,53,50,46,96,74,45,30.02,29.94,8,2,8,0.00
2013-10-30,79,60,49,54,49,38,94,73,24,30.07,30.00,10,3,10,0.00
2013-10-31,82,59,46,49,46,32,93,65,16,30.09,30.02,8,2,8,0.00
2013-11-1,89,67,50,56,41,31,76,43,13,30.11,29.97,8,3,8,0.00
2013-11-2,91,67,53,55,43,31,91,47,15,29.99,29.89,8,2,8,0.00
2013-11-3,75,62,48,58,54,48,99,75,49,29.93,29.84,11,2,11,0.00
2013-11-4,75,61,50,58,53,47,92,77,48,29.97,29.81,13,2,13,0.00
2013-11-5,77,65,50,49,26,18,93,29,13,30.17,29.97,21,6,21,0.00
2013-11-6,86,68,60,31,21,18,20,17,12,30.22,30.14,17,6,17,0.00
2013-11-7,93,70,54,45,30,19,47,24,12,30.13,30.01,6,2,6,0.00
2013-11-8,82,64,50,58,42,26,95,52,17,30.04,29.94,4,1,4,0.00
2013-11-9,76,59,46,58,50,42,96,74,42,30.08,29.99,7,2,7,0.00
2013-11-10,88,60,46,54,48,31,91,69,13,30.12,30.05,9,3,9,0.00
2013-11-11,79,60,46,55,46,39,89,63,27,30.15,30.05,6,2,6,0.00
2013-11-12,80,63,53,57,50,43,83,65,37,30.18,30.08,6,2,6,0.00
2013-11-13,97,77,52,53,38,27,66,26,11,30.08,29.93,10,2,10,0.00
2013-11-14,98,72,55,58,42,28,86,39,12,29.95,29.80,9,2,9,0.00
2013-12-6,68,49,39,41,36,29,85,63,33,30.18,30.10,5,3,5,0.00
2013-12-7,61,46,36,52,39,28,99,76,47,30.13,29.98,12,3,12,0.20
2013-12-8,64,45,32,36,28,14,79,55,23,30.22,30.11,8,2,8,0.00
2013-12-9,58,51,44,19,14,10,30,23,20,30.33,30.21,23,12,23,0.18
2013-12-10,70,56,48,20,15,12,24,20,14,30.29,30.11,14,6,14,0.00
2013-12-11,74,60,49,25,17,13,23,19,13,30.19,30.11,11,5,11,0.00
2013-12-12,78,57,46,46,36,14,76,48,13,30.21,30.14,8,2,8,0.00
2013-12-14,76,66,44,43,23,18,94,22,13,30.31,30.19,17,8,17,0.04
2013-12-15,83,71,62,30,22,18,20,16,12,30.27,30.11,14,6,14,0.00
2013-12-16,90,72,59,40,27,20,46,20,12,30.14,30.06,10,3,10,0.00
2013-12-17,91,71,61,50,34,22,64,30,12,30.12,30.01,5,2,5,0.00
2013-12-18,72,61,52,56,51,38,91,72,37,29.99,29.87,9,2,9,0.00
2013-12-19,64,54,43,51,46,40,94,76,45,29.85,29.71,8,2,8,0.00
2013-12-20,72,56,39,45,39,25,91,58,18,29.95,29.81,17,3,17,0.00
2013-12-21,72,54,44,51,44,37,96,72,36,30.11,29.93,8,2,8,0.00
2013-12-22,72,54,45,53,48,43,96,81,48,30.28,30.10,8,2,8,0.00
2013-12-23,80,62,43,48,39,30,96,48,16,30.32,30.21,15,3,15,0.00
2013-12-24,86,67,50,47,36,26,66,35,13,30.21,30.09,17,4,17,0.00
2013-12-25,81,72,67,30,24,18,24,17,12,30.23,30.15,27,10,27,0.00
2013-12-26,82,71,60,26,21,18,20,15,12,30.19,30.08,23,7,23,0.00
2013-12-27,89,67,55,38,25,18,36,21,12,30.16,30.04,13,2,13,0.00
2013-12-28,80,59,44,53,36,20,93,49,15,30.04,29.93,8,1,8,0.00
2013-12-29,78,65,42,41,23,18,89,26,13,30.15,30.01,24,7,24,0.00
2013-12-30,80,60,48,39,25,14,58,28,13,30.26,30.15,8,2,8,0.00
2013-12-31,77,56,43,51,34,22,85,49,17,30.21,30.09,11,2,11,0.00
2014-1-1,77,55,41,54,44,34,87,67,39,30.15,30.05,7,2,7,0.00
2014-1-2,86,65,50,49,34,22,59,33,13,30.11,30.00,11,2,11,0.00